Date String (YYYY-MM-DD hh:mm:ss) UTC,Instrument flags,absolute air pressure of the measurement (hPa),sample flow rate (lpm),inlet stack bypass flow (lpm),air temperature of the measurement (°C),ambient temperature measured by the external sensor (°C),aerosol sample conditioner tube jacket temperature (°C),OPC LED temperature (°C),internal box temperature (°C),relative humidity of the measurement (%),span deviation,mass concentration of particles derived from Lorenz-Mie calculation of OPC scattering (μg/m³),mass concentration of particles derived from Lorenz-Mie calculation of OPC scattering (μg/m³),mass concentration of particles derived from Lorenz-Mie calculation of OPC scattering (μg/m³)
DateTimeUTC,F1_M11,P_M11,Q1_M11,Q2_M11,T1_M11,T2_M11,T3_M11,T4_M11,T5_M11,U1_M11,ZSPAN_M11,X2_M11,X0_M11,X1_M11
2024-04-19 10:00:00,SystemResetWarning,0832.5,5.00,000.00,019.8,019.3,000.0,028.3,021.6,024.3,0000.0,0004.21,0004.52,0004.14
2024-04-19 10:01:00,SystemResetWarning,0832.5,5.00,000.00,019.8,019.3,000.0,028.3,021.6,024.3,0000.0,0004.20,0004.51,0004.14
2024-04-19 10:02:00,SystemResetWarning,0832.5,5.00,000.00,019.8,019.3,000.0,028.3,021.6,024.3,0000.0,0004.20,0004.53,0004.13
2024-04-19 10:03:00,SystemResetWarning,0832.6,5.00,000.00,019.8,019.3,000.0,028.3,021.6,024.3,0000.0,0004.19,0004.52,0004.11
2024-04-19 10:04:00,SystemResetWarning,0832.5,5.01,000.00,019.8,019.3,000.0,028.3,021.6,024.3,0000.0,0004.18,0004.64,0004.09
2024-04-19 10:05:00,SystemResetWarning,0832.5,5.01,000.00,019.8,019.3,000.0,028.3,021.6,024.3,0000.0,0004.16,0004.62,0004.08
2024-04-19 10:06:00,SystemResetWarning,0832.5,5.00,000.00,019.8,019.3,000.0,028.3,021.6,024.3,0000.0,0004.13,0004.55,0004.04
2024-04-19 10:07:00,SystemResetWarning,0832.5,5.00,000.00,019.8,019.3,000.0,028.3,021.6,024.3,0000.0,0004.10,0004.57,0004.01
2024-04-19 10:08:00,SystemResetWarning,0832.4,5.00,000.00,019.8,019.3,000.0,028.3,021.6,024.3,0000.0,0004.08,0004.57,0003.97
2024-04-19 10:09:00,SystemResetWarning,0832.3,4.99,000.00,019.8,019.3,000.0,028.3,021.6,024.3,0000.0,0004.06,0004.58,0003.94
2024-04-19 10:10:00,SystemResetWarning,0832.3,4.99,000.00,019.9,019.3,000.0,028.3,021.6,024.3,0000.0,0004.01,0004.54,0003.88
2024-04-19 10:11:00,SystemResetWarning,0832.3,5.00,000.00,019.9,019.3,000.0,028.3,021.6,024.3,0000.0,0003.93,0004.38,0003.82
2024-04-19 10:12:00,SystemResetWarning,0832.3,5.00,000.00,019.8,019.3,000.0,028.3,021.6,024.3,0000.0,0003.88,0004.29,0003.77
2024-04-19 10:13:00,SystemResetWarning,0832.3,5.01,000.00,019.9,019.3,000.0,028.3,021.6,024.3,0000.0,0003.83,0004.19,0003.72
2024-04-19 10:14:00,SystemResetWarning,0832.5,5.01,000.00,019.9,019.3,000.0,028.3,021.6,024.3,0000.0,0003.79,0004.11,0003.69
2024-04-19 10:15:00,SystemResetWarning,0832.5,5.00,000.00,019.9,019.3,000.0,028.3,021.6,024.3,0000.0,0003.77,0003.94,0003.68
2024-04-19 10:16:00,SystemResetWarning,0832.6,4.99,000.00,019.8,019.3,000.0,028.3,021.6,024.3,0000.0,0003.76,0003.93,0003.65
2024-04-19 10:17:00,SystemResetWarning,0832.5,4.99,000.00,019.9,019.3,000.0,028.3,021.6,024.3,0000.0,0003.73,0003.89,0003.64
2024-04-19 10:18:00,SystemResetWarning,0832.5,5.01,000.00,019.9,019.3,000.0,028.3,021.6,024.3,0000.0,0003.71,0003.81,0003.63
2024-04-19 10:19:00,SystemResetWarning,0832.6,5.00,000.00,019.9,019.3,000.0,028.3,021.6,024.3,0000.0,0003.68,0003.75,0003.61
2024-04-19 10:20:00,SystemResetWarning,0832.5,5.01,000.00,019.9,019.3,000.0,028.3,021.6,024.3,0000.0,0003.64,0003.66,0003.58
2024-04-19 10:21:00,SystemResetWarning,0832.5,5.00,000.00,019.9,019.3,000.0,028.3,021.6,024.3,0000.0,0003.60,0003.57,0003.54
2024-04-19 10:22:00,SystemResetWarning,0832.5,4.99,000.00,019.9,019.3,000.0,028.3,021.6,024.3,0000.0,0003.58,0003.55,0003.52
2024-04-19 10:23:00,SystemResetWarning,0832.6,4.99,000.00,019.9,019.3,000.0,028.3,021.6,024.3,0000.0,0003.54,0003.53,0003.48
2024-04-19 10:24:00,SystemResetWarning,0832.5,5.01,000.00,019.9,019.3,000.0,028.3,021.6,024.3,0000.0,0003.50,0003.51,0003.44
2024-04-19 10:25:00,SystemResetWarning,0832.5,5.01,000.00,019.9,019.3,000.0,028.3,021.6,024.3,0000.0,0003.45,0003.43,0003.39
2024-04-19 10:26:00,SystemResetWarning,0832.5,4.99,000.00,019.9,019.3,000.0,028.3,021.6,024.3,0000.0,0003.38,0003.33,0003.32
2024-04-19 10:27:00,SystemResetWarning,0832.4,5.00,000.00,019.9,019.3,000.0,028.4,021.6,024.8,0000.0,0003.30,0003.19,0003.25
2024-04-19 10:28:00,SystemResetWarning,0832.4,5.00,000.00,019.9,019.3,000.0,028.4,021.6,025.3,0000.0,0003.22,0003.05,0003.18
2024-04-19 10:29:00,SystemResetWarning,0832.3,5.00,000.00,019.9,019.3,000.0,028.4,021.6,024.7,0000.0,0003.16,0002.99,0003.12
2024-04-19 10:30:00,SystemResetWarning,0832.3,5.01,000.00,019.9,019.3,000.0,028.4,021.6,024.6,0000.0,0003.08,0002.88,0003.01
2024-04-19 10:31:00,SystemResetWarning,0832.3,5.00,000.00,019.9,019.3,000.0,028.4,021.6,024.5,0000.0,0002.97,0002.79,0002.89
2024-04-19 10:32:00,SystemResetWarning,0832.3,5.00,000.00,019.9,019.3,000.0,028.4,021.6,024.5,0000.0,0002.90,0002.73,0002.82
2024-04-19 10:33:00,SystemResetWarning,0832.3,4.99,000.00,019.9,019.3,000.0,028.3,021.6,024.5,0000.0,0002.83,0002.68,0002.75
2024-04-19 10:34:00,SystemResetWarning,0832.3,4.99,000.00,019.9,019.3,000.0,028.4,021.6,024.5,0000.0,0002.83,0002.66,0002.74
2024-04-19 10:35:00,SystemResetWarning,0832.5,5.01,000.00,019.9,019.3,000.0,028.4,021.6,024.4,0000.0,0002.83,0002.63,0002.75
2024-04-19 10:36:00,SystemResetWarning,0832.5,5.01,000.00,019.9,019.3,000.0,028.3,021.6,024.4,0000.0,0002.88,0002.68,0002.78
2024-04-19 10:37:00,SystemResetWarning,0832.5,5.00,000.00,019.9,019.3,000.0,028.3,021.6,024.4,0000.0,0002.92,0002.76,0002.82
2024-04-19 10:38:00,SystemResetWarning,0832.3,4.99,000.00,019.9,019.3,000.0,028.3,021.6,024.4,0000.0,0002.97,0002.89,0002.86
2024-04-19 10:39:00,SystemResetWarning,0832.3,4.99,000.00,019.9,019.3,000.0,028.3,021.6,024.4,0000.0,0003.02,0002.94,0002.92
2024-04-19 10:40:00,SystemResetWarning,0832.2,5.00,000.00,019.9,019.3,000.0,028.4,021.6,024.4,0000.0,0003.06,0002.94,0002.97
2024-04-19 10:41:00,SystemResetWarning,0832.2,5.01,000.00,019.9,019.3,000.0,028.4,021.7,024.4,0000.0,0003.12,0003.02,0003.05
2024-04-19 10:42:00,SystemResetWarning,0832.2,5.01,000.00,019.9,019.3,000.0,028.3,021.6,024.3,0000.0,0003.17,0003.12,0003.12
2024-04-19 10:43:00,SystemResetWarning,0832.2,5.00,000.00,019.9,019.3,000.0,028.4,021.7,024.4,0000.0,0003.21,0003.18,0003.16
2024-04-19 10:44:00,SystemResetWarning,0832.2,5.00,000.00,019.9,019.3,000.0,028.4,021.6,024.5,0000.0,0003.23,0003.20,0003.19
2024-04-19 10:45:00,SystemResetWarning,0832.2,5.00,000.00,019.9,019.3,000.0,028.4,021.7,024.4,0000.0,0003.25,0003.22,0003.21
2024-04-19 10:46:00,SystemResetWarning,0832.2,5.00,000.00,019.9,019.3,000.0,028.4,021.6,024.4,0000.0,0003.26,0003.23,0003.23
2024-04-19 10:47:00,SystemResetWarning,0832.2,5.00,000.00,019.9,019.3,000.0,028.4,021.6,024.4,0000.0,0003.28,0003.27,0003.25
2024-04-19 10:48:00,SystemResetWarning,0832.2,5.00,000.00,019.9,019.3,000.0,028.4,021.6,024.3,0000.0,0003.30,0003.31,0003.27
2024-04-19 10:49:00,SystemResetWarning,0832.2,5.00,000.00,019.9,019.3,000.0,028.4,021.6,024.3,0000.0,0003.32,0003.26,0003.29
2024-04-19 10:50:00,SystemResetWarning,0832.2,5.00,000.00,019.9,019.3,000.0,028.4,021.6,024.3,0000.0,0003.35,0003.34,0003.31
2024-04-19 10:51:00,SystemResetWarning,0832.2,5.00,000.00,019.9,019.3,000.0,028.4,021.6,024.2,0000.0,0003.39,0003.47,0003.35
2024-04-19 10:52:00,SystemResetWarning,0832.1,5.00,000.00,019.9,019.3,000.0,028.4,021.6,024.3,0000.0,0003.44,0003.61,0003.38
2024-04-19 10:53:00,SystemResetWarning,0832.1,4.99,000.00,019.9,019.3,000.0,028.4,021.6,024.3,0000.0,0003.47,0003.88,0003.41
2024-04-19 10:54:00,SystemResetWarning,0832.0,5.01,000.00,019.9,019.3,000.0,028.4,021.6,024.3,0000.0,0003.49,0004.00,0003.42
2024-04-19 10:55:00,SystemResetWarning,0832.0,5.00,000.00,019.9,019.3,000.0,028.4,021.6,024.3,0000.0,0003.51,0004.05,0003.44
2024-04-19 10:56:00,SystemResetWarning,0832.1,5.00,000.00,019.9,019.3,000.0,028.4,021.6,024.3,0000.0,0003.52,0004.06,0003.45
2024-04-19 10:57:00,SystemResetWarning,0832.2,5.00,000.00,019.9,019.3,000.0,028.4,021.6,024.4,0000.0,0003.54,0004.11,0003.47
2024-04-19 10:58:00,SystemResetWarning,0832.2,5.00,000.00,019.9,019.3,000.0,028.4,021.6,024.4,0000.0,0003.55,0004.13,0003.47
2024-04-19 10:59:00,SystemResetWarning,0832.2,4.99,000.00,019.9,019.3,000.0,028.4,021.6,024.4,0000.0,0003.55,0004.13,0003.48
